Back to catalog

NAVSTAR 73

USA 260

AliveNavigationHEO
NORAD 40534·PAYLOAD·🇺🇸 United States

Launched Mar 25, 2015 from Cape Canaveral Space Force Station

Loading…

Next Passes (next 24 hours)

TLE

FreshSource: CelesTrak SupGP

Epoch: Sep 16, 2026, 16:44 UTC

1 40534C 15013A   26259.69756944  .00000000  00000+0  00000+0 0  2597
2 40534  53.1573 200.3956 0113087  41.1395 246.1700  2.00570646    11

Track NAVSTAR 73 in real time with AllMySat

Download on the App Store